sat.trackr.live / text

‹ back to catalog

ATHENA

NORAD 46275 · 2020-061D

PAYLOAD ACTIVE UNKNOWN

§ Identity

Operator
Country
US
Launch date
2020-09-03
Launch site
FRGUI
Launch vehicle
Mass (kg)
RCS (m²)

External: N2YO · Heavens-Above · Gunter

§ Orbital elements

Epoch: 2026-09-20T00:17:38.889888Z

Period
92.82 min
Inclination
97.1834°
Eccentricity
0.0002239
Mean motion
15.51421080 rev/d
Perigee alt
411.1 km
Apogee alt
414.1 km
Semi-major
6,790.7 km
B*
1.9281e-4
RAAN
327.1121°
Arg perigee
100.6614°
Mean anomaly
259.4891°
Rev number
33,684

§ Raw data

ATHENA1 46275U 20061D   26263.01225567  .00011270  00000+0  19281-3 0  99942 46275  97.1834 327.1121 0002239 100.6614 259.4891 15.51421080336848

JSON: /api/v1/satellites/46275 · /tle

For live sub-satellite position, see the globe view (requires WebGL).

§ Visibility from observer

Set your observer location to see the next 7 days of passes ≥ 10°. The values pass through the URL so the page stays shareable.

No JS? Fill the form by hand. The geolocation button needs JavaScript.